Time,TemperatureF,DewpointF,PressureIn,WindDirection,WindDirectionDegrees,WindSpeedMPH,WindSpeedGustMPH,Humidity,HourlyPrecipIn,Conditions,Clouds,dailyrainin,SoftwareType,DateUTC
2013-06-24 00:01:00,60.7,56.2,29.73,SSE,155,0.0,1.0,85,0.00,,,0.00,WeatherCatV1.15B25,2013-06-24 07:01:00,
2013-06-24 00:06:00,60.7,56.2,29.73,SSE,163,0.0,0.0,85,0.00,,,0.00,WeatherCatV1.15B25,2013-06-24 07:06:00,
2013-06-24 00:11:00,60.7,56.2,29.73,ESE,108,0.0,1.0,85,0.00,,,0.00,WeatherCatV1.15B25,2013-06-24 07:11:00,
2013-06-24 00:16:00,60.7,56.2,29.73,SSE,158,0.0,0.0,85,0.00,,,0.00,WeatherCatV1.15B25,2013-06-24 07:16:00,
2013-06-24 00:21:00,60.7,56.2,29.73,SSE,167,0.0,0.0,85,0.00,,,0.00,WeatherCatV1.15B25,2013-06-24 07:21:00,
2013-06-24 00:26:00,60.6,56.1,29.72,ESE,108,0.0,1.0,85,0.00,,,0.00,WeatherCatV1.15B25,2013-06-24 07:26:00,
2013-06-24 00:31:00,60.5,56.0,29.73,WSW,238,1.0,1.0,85,0.00,,,0.00,WeatherCatV1.15B25,2013-06-24 07:31:00,
2013-06-24 00:36:00,60.5,56.0,29.73,South,172,0.0,0.0,85,0.00,,,0.00,WeatherCatV1.15B25,2013-06-24 07:36:00,
2013-06-24 00:41:00,60.4,55.9,29.73,WSW,240,1.0,1.0,85,0.00,,,0.00,WeatherCatV1.15B25,2013-06-24 07:41:00,
2013-06-24 00:46:00,60.4,55.9,29.73,SW,231,0.0,1.0,85,0.00,,,0.00,WeatherCatV1.15B25,2013-06-24 07:46:00,
2013-06-24 00:51:00,60.4,55.9,29.73,SSE,159,0.0,1.0,85,0.00,,,0.00,WeatherCatV1.15B25,2013-06-24 07:51:00,
2013-06-24 00:56:00,60.4,55.9,29.73,SSW,208,0.0,1.0,85,0.00,,,0.00,WeatherCatV1.15B25,2013-06-24 07:56:00,
2013-06-24 01:01:00,60.4,55.9,29.72,SSW,204,0.0,0.0,85,0.00,,,0.00,WeatherCatV1.15B25,2013-06-24 08:01:00,
2013-06-24 01:06:00,60.4,55.9,29.72,SSE,158,0.0,0.0,85,0.00,,,0.00,WeatherCatV1.15B25,2013-06-24 08:06:00,
2013-06-24 01:11:00,60.4,55.9,29.72,SW,226,0.0,1.0,85,0.00,,,0.00,WeatherCatV1.15B25,2013-06-24 08:11:00,
2013-06-24 01:16:00,60.3,55.8,29.72,South,169,0.0,0.0,85,0.00,,,0.00,WeatherCatV1.15B25,2013-06-24 08:16:00,
2013-06-24 01:21:00,60.3,55.8,29.72,SW,224,1.0,1.0,85,0.00,,,0.00,WeatherCatV1.15B25,2013-06-24 08:21:00,
2013-06-24 01:26:00,60.1,55.9,29.72,SSE,155,0.0,2.0,86,0.00,,,0.00,WeatherCatV1.15B25,2013-06-24 08:26:00,
2013-06-24 01:31:00,60.0,55.8,29.72,SE,142,0.0,1.0,86,0.00,,,0.00,WeatherCatV1.15B25,2013-06-24 08:31:00,
2013-06-24 01:36:00,59.9,55.7,29.71,SW,214,0.0,1.0,86,0.00,,,0.00,WeatherCatV1.15B25,2013-06-24 08:36:00,
2013-06-24 01:41:00,59.7,55.5,29.71,SSW,212,0.0,1.0,86,0.00,,,0.00,WeatherCatV1.15B25,2013-06-24 08:41:00,
2013-06-24 01:46:00,59.6,55.4,29.71,WSW,246,0.0,0.0,86,0.00,,,0.00,WeatherCatV1.15B25,2013-06-24 08:46:00,
2013-06-24 01:51:00,59.4,55.5,29.71,WSW,238,0.0,0.0,87,0.00,,,0.00,WeatherCatV1.15B25,2013-06-24 08:51:00,
2013-06-24 01:56:00,59.3,55.4,29.72,WSW,249,0.0,1.0,87,0.00,,,0.00,WeatherCatV1.15B25,2013-06-24 08:56:00,
2013-06-24 02:01:00,59.3,55.4,29.72,SW,236,0.0,0.0,87,0.00,,,0.00,WeatherCatV1.15B25,2013-06-24 09:01:00,
2013-06-24 02:06:00,59.3,55.4,29.72,South,186,0.0,0.0,87,0.00,,,0.00,WeatherCatV1.15B25,2013-06-24 09:06:00,
2013-06-24 02:11:00,59.3,55.7,29.71,SSE,156,0.0,1.0,88,0.00,,,0.00,WeatherCatV1.15B25,2013-06-24 09:11:00,
2013-06-24 02:16:00,59.3,55.7,29.71,SSE,156,0.0,0.0,88,0.00,,,0.00,WeatherCatV1.15B25,2013-06-24 09:16:00,
2013-06-24 02:21:00,59.3,55.7,29.71,SE,140,0.0,2.0,88,0.00,,,0.00,WeatherCatV1.15B25,2013-06-24 09:21:00,
2013-06-24 02:26:00,59.3,55.7,29.71,SSE,166,0.0,1.0,88,0.00,,,0.00,WeatherCatV1.15B25,2013-06-24 09:26:00,
2013-06-24 02:31:00,59.4,55.5,29.71,SSE,148,0.0,1.0,87,0.00,,,0.00,WeatherCatV1.15B25,2013-06-24 09:31:00,
2013-06-24 02:36:00,59.4,55.5,29.71,SE,140,0.0,0.0,87,0.00,,,0.00,WeatherCatV1.15B25,2013-06-24 09:36:00,
2013-06-24 02:41:00,59.4,55.5,29.71,SSE,159,0.0,0.0,87,0.00,,,0.00,WeatherCatV1.15B25,2013-06-24 09:41:00,
2013-06-24 02:46:00,59.3,55.4,29.71,SE,124,0.0,2.0,87,0.00,,,0.00,WeatherCatV1.15B25,2013-06-24 09:46:00,
2013-06-24 02:51:00,59.4,55.5,29.71,SSE,151,0.0,1.0,87,0.00,,,0.00,WeatherCatV1.15B25,2013-06-24 09:51:00,
2013-06-24 02:56:00,59.4,55.5,29.71,WSW,255,0.0,1.0,87,0.00,,,0.00,WeatherCatV1.15B25,2013-06-24 09:56:00,
2013-06-24 03:01:00,59.3,55.4,29.71,SW,232,0.0,1.0,87,0.00,,,0.00,WeatherCatV1.15B25,2013-06-24 10:01:00,
2013-06-24 03:06:00,59.3,55.4,29.71,ESE,115,0.0,1.0,87,0.00,,,0.00,WeatherCatV1.15B25,2013-06-24 10:06:00,
2013-06-24 03:11:00,59.4,55.5,29.71,ESE,117,0.0,1.0,87,0.00,,,0.00,WeatherCatV1.15B25,2013-06-24 10:11:00,
2013-06-24 03:16:00,59.4,55.5,29.71,SE,140,1.0,2.0,87,0.00,,,0.00,WeatherCatV1.15B25,2013-06-24 10:16:00,
2013-06-24 03:21:00,59.4,55.5,29.71,WSW,239,1.0,2.0,87,0.00,,,0.00,WeatherCatV1.15B25,2013-06-24 10:21:00,
2013-06-24 03:26:00,59.3,55.4,29.70,SE,135,0.0,0.0,87,0.00,,,0.00,WeatherCatV1.15B25,2013-06-24 10:26:00,
2013-06-24 03:31:00,59.2,55.3,29.70,SE,131,0.0,0.0,87,0.00,,,0.00,WeatherCatV1.15B25,2013-06-24 10:31:00,
2013-06-24 03:36:00,59.2,55.3,29.70,WSW,248,0.0,1.0,87,0.00,,,0.00,WeatherCatV1.15B25,2013-06-24 10:36:00,
2013-06-24 03:41:00,59.1,55.2,29.70,SE,138,0.0,0.0,87,0.00,,,0.00,WeatherCatV1.15B25,2013-06-24 10:41:00,
2013-06-24 03:46:00,59.0,55.1,29.70,SSE,166,0.0,1.0,87,0.00,,,0.00,WeatherCatV1.15B25,2013-06-24 10:46:00,
2013-06-24 03:51:00,58.9,55.0,29.70,SSE,165,0.0,1.0,87,0.00,,,0.00,WeatherCatV1.15B25,2013-06-24 10:51:00,
2013-06-24 03:56:00,58.9,55.0,29.70,South,170,1.0,1.0,87,0.00,,,0.00,WeatherCatV1.15B25,2013-06-24 10:56:00,
2013-06-24 04:01:00,58.8,54.9,29.70,South,172,0.0,0.0,87,0.00,,,0.00,WeatherCatV1.15B25,2013-06-24 11:01:00,
2013-06-24 04:06:00,58.7,54.8,29.70,South,172,0.0,1.0,87,0.00,,,0.00,WeatherCatV1.15B25,2013-06-24 11:06:00,
2013-06-24 04:11:00,58.7,54.5,29.70,SSE,164,0.0,1.0,86,0.00,,,0.00,WeatherCatV1.15B25,2013-06-24 11:11:00,
2013-06-24 04:16:00,58.6,54.4,29.71,SSE,158,0.0,0.0,86,0.00,,,0.00,WeatherCatV1.15B25,2013-06-24 11:16:00,
2013-06-24 04:21:00,58.6,54.4,29.71,WSW,243,0.0,2.0,86,0.00,,,0.00,WeatherCatV1.15B25,2013-06-24 11:21:00,
2013-06-24 04:26:00,58.5,54.6,29.72,WSW,249,0.0,1.0,87,0.00,,,0.00,WeatherCatV1.15B25,2013-06-24 11:26:00,
2013-06-24 04:31:00,58.4,54.5,29.72,WSW,243,0.0,0.0,87,0.00,,,0.00,WeatherCatV1.15B25,2013-06-24 11:31:00,
2013-06-24 04:36:00,58.3,54.1,29.73,SE,127,0.0,1.0,86,0.00,,,0.00,WeatherCatV1.15B25,2013-06-24 11:36:00,
2013-06-24 04:41:00,58.2,54.0,29.73,SSW,213,0.0,1.0,86,0.00,,,0.00,WeatherCatV1.15B25,2013-06-24 11:41:00,
2013-06-24 04:46:00,58.1,53.9,29.73,SW,226,0.0,1.0,86,0.00,,,0.00,WeatherCatV1.15B25,2013-06-24 11:46:00,
2013-06-24 04:51:00,58.1,54.2,29.73,SW,227,0.0,0.0,87,0.00,,,0.00,WeatherCatV1.15B25,2013-06-24 11:51:00,
2013-06-24 04:56:00,58.1,54.2,29.72,South,191,0.0,0.0,87,0.00,,,0.00,WeatherCatV1.15B25,2013-06-24 11:56:00,
2013-06-24 05:01:00,58.0,54.2,29.72,SE,136,0.0,1.0,87,0.00,,,0.00,WeatherCatV1.15B25,2013-06-24 12:01:00,
2013-06-24 05:06:00,58.0,54.2,29.72,SE,137,0.0,0.0,87,0.00,,,0.00,WeatherCatV1.15B25,2013-06-24 12:06:00,
2013-06-24 05:11:00,57.9,54.1,29.72,SW,231,0.0,1.0,87,0.00,,,0.00,WeatherCatV1.15B25,2013-06-24 12:11:00,
2013-06-24 05:16:00,57.9,54.1,29.72,SSW,205,0.0,0.0,87,0.00,,,0.00,WeatherCatV1.15B25,2013-06-24 12:16:00,
2013-06-24 05:21:00,57.8,54.3,29.72,South,174,0.0,0.0,88,0.00,,,0.00,WeatherCatV1.15B25,2013-06-24 12:21:00,
2013-06-24 05:26:00,57.8,54.3,29.72,SW,224,0.0,1.0,88,0.00,,,0.00,WeatherCatV1.15B25,2013-06-24 12:26:00,
2013-06-24 05:31:00,57.8,54.3,29.72,South,191,0.0,1.0,88,0.00,,,0.00,WeatherCatV1.15B25,2013-06-24 12:31:00,
2013-06-24 05:36:00,57.8,54.3,29.72,SE,135,0.0,1.0,88,0.00,,,0.00,WeatherCatV1.15B25,2013-06-24 12:36:00,
2013-06-24 05:41:00,57.8,54.3,29.73,SE,135,0.0,0.0,88,0.00,,,0.00,WeatherCatV1.15B25,2013-06-24 12:41:00,
2013-06-24 05:46:00,57.8,54.3,29.73,SSE,149,0.0,1.0,88,0.00,,,0.00,WeatherCatV1.15B25,2013-06-24 12:46:00,
2013-06-24 05:51:00,57.8,54.3,29.73,SE,142,0.0,1.0,88,0.00,,,0.00,WeatherCatV1.15B25,2013-06-24 12:51:00,
2013-06-24 05:56:00,57.7,54.2,29.73,SE,143,0.0,1.0,88,0.00,,,0.00,WeatherCatV1.15B25,2013-06-24 12:56:00,
2013-06-24 06:01:00,57.8,54.3,29.73,SSE,158,0.0,0.0,88,0.00,,,0.00,WeatherCatV1.15B25,2013-06-24 13:01:00,
2013-06-24 06:06:00,57.8,54.3,29.73,SSE,158,0.0,0.0,88,0.00,,,0.00,WeatherCatV1.15B25,2013-06-24 13:06:00,
2013-06-24 06:11:00,57.7,54.2,29.74,SE,133,1.0,1.0,88,0.00,,,0.00,WeatherCatV1.15B25,2013-06-24 13:11:00,
2013-06-24 06:16:00,57.7,54.2,29.74,SSW,194,0.0,0.0,88,0.00,,,0.00,WeatherCatV1.15B25,2013-06-24 13:16:00,
2013-06-24 06:21:00,57.6,54.1,29.74,SW,218,0.0,1.0,88,0.00,,,0.00,WeatherCatV1.15B25,2013-06-24 13:21:00,
2013-06-24 06:26:00,57.5,54.0,29.74,SW,218,0.0,1.0,88,0.00,,,0.00,WeatherCatV1.15B25,2013-06-24 13:26:00,
2013-06-24 06:31:00,57.5,54.0,29.74,SSE,150,1.0,2.0,88,0.00,,,0.00,WeatherCatV1.15B25,2013-06-24 13:31:00,
2013-06-24 06:36:00,57.4,53.9,29.74,SE,129,0.0,1.0,88,0.00,,,0.00,WeatherCatV1.15B25,2013-06-24 13:36:00,
2013-06-24 06:41:00,57.3,53.5,29.74,ESE,120,0.0,1.0,87,0.00,,,0.00,WeatherCatV1.15B25,2013-06-24 13:41:00,
2013-06-24 06:46:00,57.2,53.4,29.74,South,191,0.0,1.0,87,0.00,,,0.00,WeatherCatV1.15B25,2013-06-24 13:46:00,
2013-06-24 06:51:00,57.1,53.3,29.74,SW,226,0.0,0.0,87,0.00,,,0.00,WeatherCatV1.15B25,2013-06-24 13:51:00,
2013-06-24 06:56:00,57.2,53.4,29.74,SW,224,0.0,0.0,87,0.00,,,0.00,WeatherCatV1.15B25,2013-06-24 13:56:00,
2013-06-24 07:01:00,57.1,53.3,29.75,SSW,198,1.0,1.0,87,0.00,,,0.00,WeatherCatV1.15B25,2013-06-24 14:01:00,
2013-06-24 07:06:00,57.0,53.2,29.75,SE,141,0.0,0.0,87,0.00,,,0.00,WeatherCatV1.15B25,2013-06-24 14:06:00,
2013-06-24 07:11:00,57.1,53.3,29.74,SE,144,0.0,1.0,87,0.00,,,0.00,WeatherCatV1.15B25,2013-06-24 14:11:00,
2013-06-24 07:16:00,57.2,53.4,29.75,SSE,167,0.0,0.0,87,0.00,,,0.00,WeatherCatV1.15B25,2013-06-24 14:16:00,
2013-06-24 07:21:00,57.3,53.5,29.75,NNE,27,0.0,0.0,87,0.00,,,0.00,WeatherCatV1.15B25,2013-06-24 14:21:00,
2013-06-24 07:26:00,57.3,53.5,29.75,South,180,0.0,0.0,87,0.00,,,0.00,WeatherCatV1.15B25,2013-06-24 14:26:00,
2013-06-24 07:31:00,57.4,53.6,29.75,SW,214,0.0,1.0,87,0.00,,,0.00,WeatherCatV1.15B25,2013-06-24 14:31:00,
2013-06-24 07:36:00,57.5,53.7,29.75,SE,141,2.0,2.0,87,0.00,,,0.00,WeatherCatV1.15B25,2013-06-24 14:36:00,
2013-06-24 07:41:00,57.5,53.7,29.75,SSW,193,0.0,2.0,87,0.00,,,0.00,WeatherCatV1.15B25,2013-06-24 14:41:00,
2013-06-24 07:46:00,57.5,54.0,29.75,SW,236,0.0,2.0,88,0.00,,,0.00,WeatherCatV1.15B25,2013-06-24 14:46:00,
2013-06-24 07:51:00,57.6,54.4,29.75,SE,142,0.0,1.0,89,0.00,,,0.00,WeatherCatV1.15B25,2013-06-24 14:51:00,
2013-06-24 07:56:00,57.8,54.3,29.76,SE,146,0.0,0.0,88,0.00,,,0.00,WeatherCatV1.15B25,2013-06-24 14:56:00,
2013-06-24 08:01:00,57.8,54.3,29.76,SSW,201,0.0,0.0,88,0.00,,,0.00,WeatherCatV1.15B25,2013-06-24 15:01:00,
2013-06-24 08:06:00,57.7,54.2,29.76,SE,128,0.0,1.0,88,0.00,,,0.00,WeatherCatV1.15B25,2013-06-24 15:06:00,
2013-06-24 08:10:00,57.6,54.1,29.77,SE,141,0.0,2.0,88,0.00,,,0.00,WeatherCatV1.15B25,2013-06-24 15:10:00,
2013-06-24 08:15:00,57.4,54.2,29.77,SE,141,0.0,0.0,89,0.00,,,0.00,WeatherCatV1.15B25,2013-06-24 15:15:00,
2013-06-24 08:20:00,57.2,54.3,29.77,SE,127,0.0,1.0,90,0.00,,,0.01,WeatherCatV1.15B25,2013-06-24 15:20:00,
2013-06-24 08:25:00,57.0,54.4,29.77,SE,139,0.0,0.0,91,0.12,,,0.02,WeatherCatV1.15B25,2013-06-24 15:25:00,
2013-06-24 08:30:00,56.8,54.2,29.78,SE,146,0.0,0.0,91,0.09,,,0.03,WeatherCatV1.15B25,2013-06-24 15:30:00,
2013-06-24 08:35:00,56.7,54.4,29.78,SE,146,0.0,0.0,92,0.07,,,0.03,WeatherCatV1.15B25,2013-06-24 15:35:00,
2013-06-24 08:40:00,56.6,54.3,29.78,SSE,156,0.0,0.0,92,0.06,,,0.04,WeatherCatV1.15B25,2013-06-24 15:40:00,
2013-06-24 08:45:00,56.5,54.5,29.78,SSW,200,0.0,0.0,93,0.06,,,0.04,WeatherCatV1.15B25,2013-06-24 15:45:00,
2013-06-24 08:50:00,56.4,54.1,29.78,SSW,212,0.0,0.0,92,0.04,,,0.04,WeatherCatV1.15B25,2013-06-24 15:50:00,
2013-06-24 08:55:00,56.4,54.4,29.78,SSE,150,0.0,0.0,93,0.00,,,0.04,WeatherCatV1.15B25,2013-06-24 15:55:00,
2013-06-24 09:00:00,56.4,54.4,29.78,SE,145,0.0,1.0,93,0.00,,,0.05,WeatherCatV1.15B25,2013-06-24 16:00:00,
2013-06-24 09:05:00,56.5,54.5,29.79,SE,136,0.0,0.0,93,0.00,,,0.05,WeatherCatV1.15B25,2013-06-24 16:05:00,
2013-06-24 09:10:00,56.5,54.5,29.79,SE,137,0.0,0.0,93,0.00,,,0.05,WeatherCatV1.15B25,2013-06-24 16:10:00,
2013-06-24 09:16:00,56.7,55.0,29.79,SW,219,0.0,1.0,94,0.00,,,0.05,WeatherCatV1.15B25,2013-06-24 16:16:00,
2013-06-24 09:21:00,56.9,55.2,29.79,SW,218,0.0,0.0,94,0.00,,,0.05,WeatherCatV1.15B25,2013-06-24 16:21:00,
2013-06-24 09:26:00,57.2,55.5,29.78,SW,219,0.0,1.0,94,0.00,,,0.05,WeatherCatV1.15B25,2013-06-24 16:26:00,
2013-06-24 09:31:00,57.3,55.6,29.79,South,177,0.0,0.0,94,0.00,,,0.05,WeatherCatV1.15B25,2013-06-24 16:31:00,
2013-06-24 09:36:00,57.3,55.6,29.79,SE,145,0.0,0.0,94,0.00,,,0.05,WeatherCatV1.15B25,2013-06-24 16:36:00,
2013-06-24 09:41:00,57.4,55.4,29.79,ESE,108,0.0,1.0,93,0.00,,,0.05,WeatherCatV1.15B25,2013-06-24 16:41:00,
2013-06-24 09:46:00,57.3,55.3,29.79,East,91,0.0,1.0,93,0.00,,,0.05,WeatherCatV1.15B25,2013-06-24 16:46:00,
2013-06-24 09:51:00,57.3,55.3,29.79,SE,143,0.0,1.0,93,0.00,,,0.05,WeatherCatV1.15B25,2013-06-24 16:51:00,
2013-06-24 09:56:00,57.4,55.4,29.79,SE,128,0.0,0.0,93,0.00,,,0.05,WeatherCatV1.15B25,2013-06-24 16:56:00,
2013-06-24 10:01:00,57.4,55.4,29.79,SSE,163,0.0,0.0,93,0.00,,,0.06,WeatherCatV1.15B25,2013-06-24 17:01:00,
2013-06-24 10:06:00,57.5,55.5,29.79,WSW,255,1.0,1.0,93,0.00,,,0.06,WeatherCatV1.15B25,2013-06-24 17:06:00,
2013-06-24 10:11:00,57.6,55.6,29.79,South,170,0.0,0.0,93,0.00,,,0.06,WeatherCatV1.15B25,2013-06-24 17:11:00,
2013-06-24 10:16:00,57.6,55.6,29.80,SE,143,0.0,1.0,93,0.00,,,0.06,WeatherCatV1.15B25,2013-06-24 17:16:00,
2013-06-24 10:21:00,57.6,55.6,29.80,SW,218,0.0,2.0,93,0.00,,,0.07,WeatherCatV1.15B25,2013-06-24 17:21:00,
2013-06-24 10:26:00,57.6,55.6,29.80,ESE,116,1.0,1.0,93,0.00,,,0.07,WeatherCatV1.15B25,2013-06-24 17:26:00,
2013-06-24 10:31:00,57.6,55.6,29.80,SW,217,0.0,1.0,93,0.00,,,0.07,WeatherCatV1.15B25,2013-06-24 17:31:00,
2013-06-24 10:36:00,57.7,55.7,29.80,SW,218,0.0,0.0,93,0.00,,,0.07,WeatherCatV1.15B25,2013-06-24 17:36:00,
2013-06-24 10:41:00,57.7,55.7,29.80,South,181,0.0,0.0,93,0.00,,,0.08,WeatherCatV1.15B25,2013-06-24 17:41:00,
2013-06-24 10:46:00,57.8,56.1,29.80,South,181,0.0,0.0,94,0.00,,,0.08,WeatherCatV1.15B25,2013-06-24 17:46:00,
2013-06-24 10:51:00,57.8,55.8,29.81,South,180,0.0,0.0,93,0.00,,,0.08,WeatherCatV1.15B25,2013-06-24 17:51:00,
2013-06-24 10:56:00,57.7,55.7,29.81,WSW,250,0.0,0.0,93,0.00,,,0.08,WeatherCatV1.15B25,2013-06-24 17:56:00,
2013-06-24 11:01:00,57.5,55.5,29.81,WSW,256,1.0,1.0,93,0.00,,,0.08,WeatherCatV1.15B25,2013-06-24 18:01:00,
2013-06-24 11:06:00,57.3,55.6,29.82,WSW,243,0.0,0.0,94,0.00,,,0.09,WeatherCatV1.15B25,2013-06-24 18:06:00,
2013-06-24 11:11:00,57.3,55.9,29.82,West,260,0.0,2.0,95,0.13,,,0.11,WeatherCatV1.15B25,2013-06-24 18:11:00,
2013-06-24 11:16:00,57.1,55.7,29.82,SSW,194,0.0,1.0,95,0.16,,,0.12,WeatherCatV1.15B25,2013-06-24 18:16:00,
2013-06-24 11:21:00,57.0,55.3,29.82,West,263,1.0,1.0,94,0.14,,,0.13,WeatherCatV1.15B25,2013-06-24 18:21:00,
2013-06-24 11:26:00,56.6,54.9,29.82,SW,231,0.0,2.0,94,0.10,,,0.14,WeatherCatV1.15B25,2013-06-24 18:26:00,
2013-06-24 11:31:00,56.5,55.1,29.82,WSW,248,0.0,1.0,95,0.09,,,0.14,WeatherCatV1.15B25,2013-06-24 18:31:00,
2013-06-24 11:36:00,56.7,55.3,29.82,WSW,257,0.0,1.0,95,0.05,,,0.14,WeatherCatV1.15B25,2013-06-24 18:36:00,
2013-06-24 11:41:00,56.8,55.4,29.82,West,264,0.0,0.0,95,0.05,,,0.15,WeatherCatV1.15B25,2013-06-24 18:41:00,
2013-06-24 11:46:00,56.9,55.5,29.81,West,264,0.0,1.0,95,0.05,,,0.15,WeatherCatV1.15B25,2013-06-24 18:46:00,
2013-06-24 11:51:00,56.9,55.5,29.82,WSW,256,0.0,1.0,95,0.04,,,0.15,WeatherCatV1.15B25,2013-06-24 18:51:00,
2013-06-24 11:56:00,56.9,55.5,29.82,SE,146,0.0,0.0,95,0.00,,,0.15,WeatherCatV1.15B25,2013-06-24 18:56:00,
2013-06-24 12:01:00,57.0,55.6,29.82,SSE,156,0.0,2.0,95,0.00,,,0.15,WeatherCatV1.15B25,2013-06-24 19:01:00,
2013-06-24 12:06:00,57.2,55.8,29.82,SE,124,0.0,1.0,95,0.00,,,0.15,WeatherCatV1.15B25,2013-06-24 19:06:00,
2013-06-24 12:11:00,57.3,55.6,29.82,WSW,257,0.0,0.0,94,0.00,,,0.15,WeatherCatV1.15B25,2013-06-24 19:11:00,
2013-06-24 12:16:00,57.3,55.9,29.82,ESE,105,0.0,1.0,95,0.00,,,0.15,WeatherCatV1.15B25,2013-06-24 19:16:00,
2013-06-24 12:21:00,57.4,55.7,29.82,ESE,105,0.0,0.0,94,0.00,,,0.16,WeatherCatV1.15B25,2013-06-24 19:21:00,
2013-06-24 12:26:00,57.5,56.1,29.82,ESE,108,0.0,1.0,95,0.00,,,0.16,WeatherCatV1.15B25,2013-06-24 19:26:00,
2013-06-24 12:31:00,57.6,56.2,29.82,ESE,114,0.0,1.0,95,0.00,,,0.16,WeatherCatV1.15B25,2013-06-24 19:31:00,
2013-06-24 12:36:00,57.6,55.9,29.82,ESE,122,0.0,0.0,94,0.00,,,0.16,WeatherCatV1.15B25,2013-06-24 19:36:00,
2013-06-24 12:41:00,57.7,56.0,29.82,SE,124,0.0,1.0,94,0.00,,,0.16,WeatherCatV1.15B25,2013-06-24 19:41:00,
2013-06-24 12:46:00,57.7,56.0,29.82,SSE,160,0.0,1.0,94,0.00,,,0.16,WeatherCatV1.15B25,2013-06-24 19:46:00,
2013-06-24 12:51:00,57.8,56.1,29.82,SE,136,0.0,1.0,94,0.00,,,0.16,WeatherCatV1.15B25,2013-06-24 19:51:00,
2013-06-24 12:56:00,57.8,56.1,29.82,SE,135,0.0,0.0,94,0.00,,,0.17,WeatherCatV1.15B25,2013-06-24 19:56:00,
2013-06-24 13:01:00,57.9,56.2,29.82,SE,135,0.0,0.0,94,0.07,,,0.18,WeatherCatV1.15B25,2013-06-24 20:01:00,
2013-06-24 13:06:00,57.8,56.1,29.82,SE,139,0.0,0.0,94,0.07,,,0.18,WeatherCatV1.15B25,2013-06-24 20:06:00,
2013-06-24 13:11:00,58.0,56.3,29.82,SSE,160,0.0,0.0,94,0.09,,,0.19,WeatherCatV1.15B25,2013-06-24 20:11:00,
2013-06-24 13:16:00,58.1,56.4,29.82,SSE,160,0.0,0.0,94,0.07,,,0.19,WeatherCatV1.15B25,2013-06-24 20:16:00,
2013-06-24 13:21:00,58.1,56.4,29.83,SSE,156,0.0,0.0,94,0.07,,,0.20,WeatherCatV1.15B25,2013-06-24 20:21:00,
2013-06-24 13:26:00,57.9,56.2,29.83,WSW,255,0.0,2.0,94,0.27,,,0.23,WeatherCatV1.15B25,2013-06-24 20:26:00,
2013-06-24 13:31:00,57.8,56.1,29.83,SE,141,0.0,1.0,94,0.30,,,0.26,WeatherCatV1.15B25,2013-06-24 20:31:00,
2013-06-24 13:36:00,57.6,56.2,29.83,SW,221,1.0,1.0,95,0.09,,,0.26,WeatherCatV1.15B25,2013-06-24 20:36:00,
2013-06-24 13:41:00,57.5,56.1,29.83,SE,143,2.0,2.0,95,0.05,,,0.26,WeatherCatV1.15B25,2013-06-24 20:41:00,
2013-06-24 13:46:00,57.4,55.7,29.83,ESE,120,0.0,3.0,94,0.05,,,0.27,WeatherCatV1.15B25,2013-06-24 20:46:00,
2013-06-24 13:51:00,57.4,56.0,29.83,SE,143,0.0,0.0,95,0.05,,,0.27,WeatherCatV1.15B25,2013-06-24 20:51:00,
2013-06-24 13:56:00,57.5,56.1,29.83,SE,136,1.0,1.0,95,0.05,,,0.27,WeatherCatV1.15B25,2013-06-24 20:56:00,
2013-06-24 14:01:00,57.5,56.1,29.83,SE,126,0.0,1.0,95,0.04,,,0.28,WeatherCatV1.15B25,2013-06-24 21:01:00,
2013-06-24 14:06:00,57.6,56.2,29.82,ESE,122,0.0,1.0,95,0.04,,,0.28,WeatherCatV1.15B25,2013-06-24 21:06:00,
2013-06-24 14:11:00,57.7,56.3,29.83,South,174,0.0,0.0,95,0.07,,,0.29,WeatherCatV1.15B25,2013-06-24 21:11:00,
2013-06-24 14:16:00,57.8,56.4,29.83,SE,142,0.0,0.0,95,0.11,,,0.30,WeatherCatV1.15B25,2013-06-24 21:16:00,
2013-06-24 14:21:00,57.9,56.8,29.82,SE,129,0.0,1.0,96,0.13,,,0.31,WeatherCatV1.15B25,2013-06-24 21:21:00,
2013-06-24 14:26:00,57.9,56.5,29.82,SE,137,0.0,2.0,95,0.08,,,0.32,WeatherCatV1.15B25,2013-06-24 21:26:00,
2013-06-24 14:31:00,57.9,56.5,29.82,SSE,167,0.0,1.0,95,0.08,,,0.32,WeatherCatV1.15B25,2013-06-24 21:31:00,
2013-06-24 14:36:00,58.0,56.9,29.82,SSE,150,0.0,0.0,96,0.05,,,0.32,WeatherCatV1.15B25,2013-06-24 21:36:00,
2013-06-24 14:41:00,58.0,56.6,29.82,SSE,158,0.0,1.0,95,0.05,,,0.33,WeatherCatV1.15B25,2013-06-24 21:41:00,
2013-06-24 14:46:00,58.0,56.9,29.83,ESE,117,0.0,2.0,96,0.08,,,0.34,WeatherCatV1.15B25,2013-06-24 21:46:00,
2013-06-24 14:51:00,58.0,56.6,29.83,ESE,105,1.0,4.0,95,0.08,,,0.34,WeatherCatV1.15B25,2013-06-24 21:51:00,
2013-06-24 14:56:00,58.0,56.6,29.82,ESE,114,0.0,2.0,95,0.07,,,0.35,WeatherCatV1.15B25,2013-06-24 21:56:00,
2013-06-24 15:01:00,57.7,56.3,29.83,SSE,166,0.0,1.0,95,0.09,,,0.36,WeatherCatV1.15B25,2013-06-24 22:01:00,
2013-06-24 15:06:00,57.6,56.2,29.83,SSE,166,0.0,0.0,95,0.10,,,0.36,WeatherCatV1.15B25,2013-06-24 22:06:00,
2013-06-24 15:11:00,57.5,56.1,29.83,WSW,257,0.0,2.0,95,0.36,,,0.39,WeatherCatV1.15B25,2013-06-24 22:11:00,
2013-06-24 15:16:00,57.4,56.0,29.83,WSW,243,0.0,1.0,95,0.17,,,0.41,WeatherCatV1.15B25,2013-06-24 22:16:00,
2013-06-24 15:21:00,57.4,56.3,29.84,West,267,0.0,1.0,96,0.11,,,0.41,WeatherCatV1.15B25,2013-06-24 22:21:00,
2013-06-24 15:26:00,57.2,55.8,29.84,SW,236,0.0,3.0,95,0.07,,,0.42,WeatherCatV1.15B25,2013-06-24 22:26:00,
2013-06-24 15:31:00,57.0,55.9,29.84,ESE,120,0.0,1.0,96,0.17,,,0.43,WeatherCatV1.15B25,2013-06-24 22:31:00,
2013-06-24 15:36:00,56.9,55.5,29.84,ESE,120,0.0,0.0,95,0.13,,,0.44,WeatherCatV1.15B25,2013-06-24 22:36:00,
2013-06-24 15:41:00,56.8,55.7,29.84,SE,128,0.0,0.0,96,0.07,,,0.44,WeatherCatV1.15B25,2013-06-24 22:41:00,
2013-06-24 15:46:00,56.8,55.7,29.84,SE,139,0.0,0.0,96,0.04,,,0.44,WeatherCatV1.15B25,2013-06-24 22:46:00,
2013-06-24 15:51:00,56.9,55.8,29.85,SE,139,0.0,0.0,96,0.00,,,0.44,WeatherCatV1.15B25,2013-06-24 22:51:00,
2013-06-24 15:56:00,57.0,55.9,29.85,SE,139,0.0,0.0,96,0.00,,,0.44,WeatherCatV1.15B25,2013-06-24 22:56:00,
2013-06-24 16:01:00,57.0,55.9,29.85,SE,139,0.0,1.0,96,0.00,,,0.44,WeatherCatV1.15B25,2013-06-24 23:01:00,
2013-06-24 16:06:00,57.1,56.0,29.85,SE,141,0.0,0.0,96,0.00,,,0.45,WeatherCatV1.15B25,2013-06-24 23:06:00,
2013-06-24 16:11:00,57.2,56.1,29.85,SSE,165,0.0,0.0,96,0.00,,,0.45,WeatherCatV1.15B25,2013-06-24 23:11:00,
2013-06-24 16:16:00,57.4,56.3,29.85,SSE,162,0.0,0.0,96,0.00,,,0.45,WeatherCatV1.15B25,2013-06-24 23:16:00,
2013-06-24 16:21:00,57.4,56.3,29.84,SE,131,0.0,1.0,96,0.00,,,0.45,WeatherCatV1.15B25,2013-06-24 23:21:00,
2013-06-24 16:26:00,57.4,56.3,29.84,South,177,0.0,1.0,96,0.00,,,0.46,WeatherCatV1.15B25,2013-06-24 23:26:00,
2013-06-24 16:31:00,57.4,56.3,29.85,South,177,0.0,0.0,96,0.00,,,0.46,WeatherCatV1.15B25,2013-06-24 23:31:00,
2013-06-24 16:36:00,57.6,56.5,29.85,SE,135,1.0,1.0,96,0.00,,,0.46,WeatherCatV1.15B25,2013-06-24 23:36:00,
2013-06-24 16:41:00,57.5,56.1,29.84,ESE,120,0.0,1.0,95,0.00,,,0.46,WeatherCatV1.15B25,2013-06-24 23:41:00,
2013-06-24 16:46:00,57.5,56.4,29.84,SE,131,0.0,0.0,96,0.00,,,0.47,WeatherCatV1.15B25,2013-06-24 23:46:00,
2013-06-24 16:51:00,57.5,56.1,29.84,SW,233,0.0,1.0,95,0.00,,,0.47,WeatherCatV1.15B25,2013-06-24 23:51:00,
2013-06-24 16:56:00,57.5,56.1,29.84,SW,235,0.0,1.0,95,0.00,,,0.47,WeatherCatV1.15B25,2013-06-24 23:56:00,
2013-06-24 17:01:00,57.3,55.9,29.84,SW,235,0.0,0.0,95,0.00,,,0.47,WeatherCatV1.15B25,2013-06-25 00:01:00,
2013-06-24 17:06:00,57.3,55.9,29.84,SW,235,0.0,0.0,95,0.00,,,0.47,WeatherCatV1.15B25,2013-06-25 00:06:00,
2013-06-24 17:11:00,57.3,55.9,29.84,SW,235,0.0,0.0,95,0.00,,,0.47,WeatherCatV1.15B25,2013-06-25 00:11:00,
2013-06-24 17:16:00,57.4,56.0,29.84,SW,235,0.0,1.0,95,0.00,,,0.48,WeatherCatV1.15B25,2013-06-25 00:16:00,
2013-06-24 17:21:00,57.4,56.0,29.84,SW,235,0.0,0.0,95,0.00,,,0.48,WeatherCatV1.15B25,2013-06-25 00:21:00,
2013-06-24 17:26:00,57.3,55.9,29.84,WSW,239,0.0,0.0,95,0.00,,,0.48,WeatherCatV1.15B25,2013-06-25 00:26:00,
2013-06-24 17:31:00,57.2,55.8,29.84,SW,236,0.0,0.0,95,0.00,,,0.48,WeatherCatV1.15B25,2013-06-25 00:31:00,
2013-06-24 17:36:00,57.2,55.8,29.84,SW,236,0.0,1.0,95,0.00,,,0.48,WeatherCatV1.15B25,2013-06-25 00:36:00,
2013-06-24 17:41:00,57.0,55.3,29.84,NE,47,0.0,1.0,94,0.00,,,0.49,WeatherCatV1.15B25,2013-06-25 00:41:00,
2013-06-24 17:46:00,56.7,55.0,29.84,ENE,74,0.0,0.0,94,0.00,,,0.49,WeatherCatV1.15B25,2013-06-25 00:46:00,
2013-06-24 17:51:00,56.6,55.2,29.84,ENE,75,0.0,1.0,95,0.00,,,0.49,WeatherCatV1.15B25,2013-06-25 00:51:00,
2013-06-24 17:56:00,56.5,55.1,29.84,ENE,74,0.0,0.0,95,0.00,,,0.49,WeatherCatV1.15B25,2013-06-25 00:56:00,
2013-06-24 18:01:00,56.4,55.0,29.84,ENE,75,0.0,0.0,95,0.00,,,0.50,WeatherCatV1.15B25,2013-06-25 01:01:00,
2013-06-24 18:06:00,56.3,54.9,29.84,ENE,75,0.0,0.0,95,0.00,,,0.50,WeatherCatV1.15B25,2013-06-25 01:06:00,
2013-06-24 18:11:00,56.3,54.9,29.84,ENE,75,0.0,0.0,95,0.08,,,0.51,WeatherCatV1.15B25,2013-06-25 01:11:00,
2013-06-24 18:16:00,56.4,55.3,29.84,ENE,75,0.0,0.0,96,0.11,,,0.52,WeatherCatV1.15B25,2013-06-25 01:16:00,
2013-06-24 18:21:00,56.4,55.0,29.84,ENE,75,0.0,0.0,95,0.11,,,0.53,WeatherCatV1.15B25,2013-06-25 01:21:00,
2013-06-24 18:26:00,56.3,54.9,29.84,ENE,75,0.0,0.0,95,0.10,,,0.54,WeatherCatV1.15B25,2013-06-25 01:26:00,
2013-06-24 18:31:00,56.3,55.2,29.84,ENE,75,0.0,0.0,96,0.15,,,0.55,WeatherCatV1.15B25,2013-06-25 01:31:00,
2013-06-24 18:36:00,56.2,54.8,29.84,ENE,75,0.0,0.0,95,0.13,,,0.56,WeatherCatV1.15B25,2013-06-25 01:36:00,
2013-06-24 18:41:00,56.2,55.1,29.84,ENE,74,0.0,0.0,96,0.10,,,0.57,WeatherCatV1.15B25,2013-06-25 01:41:00,
2013-06-24 18:46:00,56.2,55.1,29.85,ENE,61,0.0,1.0,96,0.08,,,0.57,WeatherCatV1.15B25,2013-06-25 01:46:00,
2013-06-24 18:51:00,56.2,55.1,29.85,ENE,60,0.0,0.0,96,0.08,,,0.58,WeatherCatV1.15B25,2013-06-25 01:51:00,
2013-06-24 18:56:00,55.9,54.5,29.85,ENE,63,0.0,1.0,95,0.07,,,0.59,WeatherCatV1.15B25,2013-06-25 01:56:00,
2013-06-24 19:01:00,55.8,54.4,29.85,ENE,70,0.0,1.0,95,0.12,,,0.60,WeatherCatV1.15B25,2013-06-25 02:01:00,
2013-06-24 19:06:00,55.7,54.6,29.85,ENE,70,0.0,0.0,96,0.16,,,0.61,WeatherCatV1.15B25,2013-06-25 02:06:00,
2013-06-24 19:11:00,55.7,54.6,29.85,ENE,70,0.0,0.0,96,0.13,,,0.62,WeatherCatV1.15B25,2013-06-25 02:11:00,
2013-06-24 19:16:00,55.7,54.6,29.84,ENE,70,0.0,0.0,96,0.08,,,0.63,WeatherCatV1.15B25,2013-06-25 02:16:00,
2013-06-24 19:21:00,55.7,54.6,29.84,ENE,70,0.0,0.0,96,0.10,,,0.63,WeatherCatV1.15B25,2013-06-25 02:21:00,
2013-06-24 19:26:00,55.7,54.6,29.84,ENE,70,0.0,0.0,96,0.10,,,0.64,WeatherCatV1.15B25,2013-06-25 02:26:00,
2013-06-24 19:31:00,55.7,54.6,29.84,ENE,70,0.0,0.0,96,0.07,,,0.65,WeatherCatV1.15B25,2013-06-25 02:31:00,
2013-06-24 19:36:00,55.7,54.6,29.84,ENE,72,0.0,0.0,96,0.07,,,0.65,WeatherCatV1.15B25,2013-06-25 02:36:00,
2013-06-24 19:41:00,55.7,54.6,29.84,ENE,72,0.0,0.0,96,0.09,,,0.66,WeatherCatV1.15B25,2013-06-25 02:41:00,
2013-06-24 19:46:00,55.6,54.5,29.85,ENE,74,0.0,0.0,96,0.07,,,0.66,WeatherCatV1.15B25,2013-06-25 02:46:00,
2013-06-24 19:51:00,55.5,54.4,29.85,ENE,72,0.0,0.0,96,0.05,,,0.67,WeatherCatV1.15B25,2013-06-25 02:51:00,
2013-06-24 19:56:00,55.4,54.3,29.85,ENE,72,0.0,0.0,96,0.05,,,0.67,WeatherCatV1.15B25,2013-06-25 02:56:00,
2013-06-24 20:01:00,55.3,54.2,29.85,ENE,73,0.0,0.0,96,0.07,,,0.68,WeatherCatV1.15B25,2013-06-25 03:01:00,
2013-06-24 20:06:00,55.2,54.1,29.85,ENE,72,0.0,0.0,96,0.10,,,0.69,WeatherCatV1.15B25,2013-06-25 03:06:00,
2013-06-24 20:11:00,55.3,54.2,29.85,ENE,72,0.0,0.0,96,0.09,,,0.70,WeatherCatV1.15B25,2013-06-25 03:11:00,
2013-06-24 20:16:00,55.4,54.3,29.85,ENE,72,0.0,0.0,96,0.09,,,0.70,WeatherCatV1.15B25,2013-06-25 03:16:00,
2013-06-24 20:21:00,55.3,54.2,29.85,ENE,72,0.0,0.0,96,0.08,,,0.71,WeatherCatV1.15B25,2013-06-25 03:21:00,
2013-06-24 20:26:00,55.3,54.2,29.85,ENE,74,0.0,0.0,96,0.07,,,0.71,WeatherCatV1.15B25,2013-06-25 03:26:00,
2013-06-24 20:31:00,55.3,54.2,29.85,ENE,74,0.0,0.0,96,0.05,,,0.72,WeatherCatV1.15B25,2013-06-25 03:31:00,
2013-06-24 20:36:00,55.3,54.5,29.85,ENE,74,0.0,0.0,97,0.05,,,0.72,WeatherCatV1.15B25,2013-06-25 03:36:00,
2013-06-24 20:41:00,55.3,54.5,29.85,ENE,74,0.0,0.0,97,0.07,,,0.73,WeatherCatV1.15B25,2013-06-25 03:41:00,
2013-06-24 20:46:00,55.3,54.2,29.85,ENE,74,0.0,0.0,96,0.09,,,0.74,WeatherCatV1.15B25,2013-06-25 03:46:00,
2013-06-24 20:51:00,55.3,54.5,29.85,ENE,74,0.0,0.0,97,0.14,,,0.75,WeatherCatV1.15B25,2013-06-25 03:51:00,
2013-06-24 20:56:00,55.4,54.6,29.85,ENE,74,0.0,0.0,97,0.14,,,0.76,WeatherCatV1.15B25,2013-06-25 03:56:00,
2013-06-24 21:01:00,55.4,54.6,29.85,ENE,73,0.0,0.0,97,0.09,,,0.77,WeatherCatV1.15B25,2013-06-25 04:01:00,
2013-06-24 21:06:00,55.4,54.6,29.85,ENE,74,0.0,0.0,97,0.09,,,0.77,WeatherCatV1.15B25,2013-06-25 04:06:00,
2013-06-24 21:11:00,55.5,54.7,29.86,ENE,74,0.0,0.0,97,0.06,,,0.78,WeatherCatV1.15B25,2013-06-25 04:11:00,
2013-06-24 21:16:00,55.5,54.7,29.86,ENE,74,0.0,0.0,97,0.06,,,0.78,WeatherCatV1.15B25,2013-06-25 04:16:00,
2013-06-24 21:21:00,55.5,54.7,29.86,ENE,74,0.0,0.0,97,0.09,,,0.79,WeatherCatV1.15B25,2013-06-25 04:21:00,
2013-06-24 21:26:00,55.4,54.6,29.86,ENE,74,0.0,0.0,97,0.10,,,0.80,WeatherCatV1.15B25,2013-06-25 04:26:00,
2013-06-24 21:31:00,55.4,54.6,29.86,ENE,74,0.0,0.0,97,0.09,,,0.81,WeatherCatV1.15B25,2013-06-25 04:31:00,
2013-06-24 21:36:00,55.5,54.7,29.86,ENE,73,0.0,0.0,97,0.09,,,0.81,WeatherCatV1.15B25,2013-06-25 04:36:00,
2013-06-24 21:41:00,55.5,54.7,29.86,ENE,73,0.0,0.0,97,0.13,,,0.83,WeatherCatV1.15B25,2013-06-25 04:41:00,
2013-06-24 21:46:00,55.5,54.7,29.86,ENE,73,0.0,0.0,97,0.18,,,0.84,WeatherCatV1.15B25,2013-06-25 04:46:00,
2013-06-24 21:51:00,55.6,54.8,29.86,ENE,74,0.0,0.0,97,0.10,,,0.85,WeatherCatV1.15B25,2013-06-25 04:51:00,
2013-06-24 21:56:00,55.6,54.8,29.87,ENE,73,0.0,0.0,97,0.12,,,0.86,WeatherCatV1.15B25,2013-06-25 04:56:00,
2013-06-24 22:01:00,55.6,54.8,29.87,ENE,74,0.0,0.0,97,0.10,,,0.86,WeatherCatV1.15B25,2013-06-25 05:01:00,
2013-06-24 22:06:00,55.6,54.8,29.87,ENE,73,0.0,0.0,97,0.07,,,0.87,WeatherCatV1.15B25,2013-06-25 05:06:00,
2013-06-24 22:11:00,55.6,54.8,29.88,ENE,73,0.0,0.0,97,0.12,,,0.88,WeatherCatV1.15B25,2013-06-25 05:11:00,
2013-06-24 22:16:00,55.6,54.8,29.88,ENE,73,0.0,0.0,97,0.14,,,0.89,WeatherCatV1.15B25,2013-06-25 05:16:00,
2013-06-24 22:21:00,55.6,54.8,29.88,ENE,74,0.0,0.0,97,0.13,,,0.90,WeatherCatV1.15B25,2013-06-25 05:21:00,
2013-06-24 22:26:00,55.6,54.8,29.88,SE,142,0.0,0.0,97,0.12,,,0.91,WeatherCatV1.15B25,2013-06-25 05:26:00,
2013-06-24 22:31:00,55.7,54.9,29.88,SSE,162,0.0,0.0,97,0.10,,,0.92,WeatherCatV1.15B25,2013-06-25 05:31:00,
2013-06-24 22:36:00,55.7,54.9,29.88,SE,134,0.0,1.0,97,0.10,,,0.93,WeatherCatV1.15B25,2013-06-25 05:36:00,
2013-06-24 22:41:00,55.7,54.9,29.88,SE,143,0.0,2.0,97,0.07,,,0.93,WeatherCatV1.15B25,2013-06-25 05:41:00,
2013-06-24 22:46:00,55.5,54.7,29.88,SE,141,0.0,0.0,97,0.04,,,0.93,WeatherCatV1.15B25,2013-06-25 05:46:00,
2013-06-24 22:51:00,55.5,54.7,29.88,SE,141,0.0,0.0,97,0.04,,,0.94,WeatherCatV1.15B25,2013-06-25 05:51:00,
2013-06-24 22:56:00,55.4,54.6,29.88,SSW,203,0.0,0.0,97,0.04,,,0.94,WeatherCatV1.15B25,2013-06-25 05:56:00,
2013-06-24 23:01:00,55.3,54.5,29.88,South,191,0.0,0.0,97,0.04,,,0.94,WeatherCatV1.15B25,2013-06-25 06:01:00,
2013-06-24 23:06:00,55.2,54.4,29.88,South,191,0.0,0.0,97,0.00,,,0.94,WeatherCatV1.15B25,2013-06-25 06:06:00,
2013-06-24 23:11:00,55.2,54.4,29.88,South,191,0.0,0.0,97,0.00,,,0.95,WeatherCatV1.15B25,2013-06-25 06:11:00,
2013-06-24 23:16:00,55.1,54.3,29.88,South,191,0.0,0.0,97,0.00,,,0.95,WeatherCatV1.15B25,2013-06-25 06:16:00,
2013-06-24 23:21:00,55.1,54.3,29.88,ESE,108,0.0,0.0,97,0.00,,,0.95,WeatherCatV1.15B25,2013-06-25 06:21:00,
2013-06-24 23:26:00,55.1,54.3,29.88,ESE,107,0.0,1.0,97,0.00,,,0.95,WeatherCatV1.15B25,2013-06-25 06:26:00,
2013-06-24 23:31:00,55.2,54.4,29.88,ESE,108,0.0,0.0,97,0.00,,,0.95,WeatherCatV1.15B25,2013-06-25 06:31:00,
2013-06-24 23:36:00,55.2,54.4,29.88,ESE,108,0.0,0.0,97,0.00,,,0.96,WeatherCatV1.15B25,2013-06-25 06:36:00,
2013-06-24 23:41:00,55.2,54.4,29.88,ESE,108,0.0,0.0,97,0.00,,,0.96,WeatherCatV1.15B25,2013-06-25 06:41:00,
2013-06-24 23:46:00,55.2,54.4,29.88,ESE,108,0.0,1.0,97,0.00,,,0.96,WeatherCatV1.15B25,2013-06-25 06:46:00,
2013-06-24 23:51:00,55.2,54.4,29.88,SE,129,0.0,0.0,97,0.04,,,0.97,WeatherCatV1.15B25,2013-06-25 06:51:00,
2013-06-24 23:56:00,55.3,54.5,29.88,SE,127,0.0,0.0,97,0.04,,,0.97,WeatherCatV1.15B25,2013-06-25 06:56:00,